GEFSNGP_850_meantemp_000.txt.gz
Temperature
26 26 26 25 23 23 23 22 21 21 18 12 11 11 9 9 8 8 8 9 9 9 10 10 10 11 11 11 10 10 10 10 8 9 11 9 10 11 12 12 13 13 13 13
25 26 25 24 20 20 19 17 19 16 14 13 11 10 9 9 8 8 9 10 10 10 11 11 11 11 10 10 10 10 10 10 10 10 8 9 10 11 11 11 12 12 12 12
25 25 24 21 16 16 15 14 15 14 12 12 11 10 11 12 13 13 12 12 12 12 12 12 11 11 11 11 11 11 11 11 11 11 10 10 10 10 10 10 11 12 12 12
24 23 22 16 16 16 15 13 13 12 11 11 12 13 14 14 13 13 12 12 12 11 11 11 11 11 10 10 11 11 11 11 11 11 11 10 10 10 10 10 10 11 11 11
23 23 18 15 16 16 15 14 13 12 14 15 14 14 15 15 13 12 11 11 11 11 10 10 10 10 10 10 10 10 10 10 10 10 10 10 10 10 9 9 9 10 11 11
22 21 21 16 16 16 16 14 13 14 15 14 14 14 14 13 11 11 10 10 10 10 9 9 9 9 9 9 9 9 9 9 9 9 9 9 10 9 9 9 9 9 9 10
20 20 18 16 16 16 17 15 15 14 13 13 12 13 12 11 11 11 10 10 9 9 9 9 8 8 7 7 7 8 8 8 8 8 9 9 9 9 9 9 9 9 9 9
20 19 17 15 15 15 15 14 13 13 12 12 11 11 11 11 10 10 10 9 9 9 8 8 7 6 6 5 6 6 6 7 7 7 8 9 9 9 9 9 9 9 9 8
18 18 16 15 15 14 13 13 12 12 11 11 11 10 10 10 10 9 9 9 9 8 7 6 5 5 4 4 4 4 5 5 5 6 7 8 8 8 8 9 9 10 10 8
17 17 16 15 14 13 12 11 11 11 11 10 10 10 10 9 9 9 9 8 8 8 6 4 4 4 3 4 4 4 4 5 5 5 6 6 7 8 9 10 10 10 9 8
16 17 15 15 13 12 11 11 11 10 10 10 10 9 9 9 9 8 8 8 8 7 5 4 3 3 4 4 3 3 4 4 4 4 4 5 6 7 8 9 9 10 8 8
16 14 14 13 12 12 11 11 10 10 10 9 9 9 9 8 8 8 7 7 7 6 4 3 3 3 3 4 3 3 3 3 3 4 4 4 5 6 7 8 8 8 8 8
13 13 12 12 12 11 11 11 10 10 10 9 9 9 8 8 7 7 6 6 5 4 2 2 3 3 4 4 3 3 3 3 3 3 3 4 4 5 7 8 8 7 7 7
13 12 12 12 11 11 11 10 10 10 9 9 9 8 8 7 6 6 5 4 3 2 1 2 3 3 3 3 3 3 3 3 3 3 3 3 4 5 6 8 8 7 7 8
12 12 12 11 11 11 10 10 10 9 9 8 8 7 7 6 5 5 4 2 1 1 1 2 3 3 3 3 3 3 3 3 3 3 3 3 4 5 7 8 9 8 6 7
12 12 11 11 11 10 10 9 9 9 8 7 7 6 6 5 5 4 2 1 1 1 1 3 3 3 3 3 3 2 2 2 2 2 3 4 5 7 8 8 8 7 6 6
11 11 11 10 10 9 9 8 8 8 7 7 6 6 5 5 3 2 1 1 1 1 2 3 3 3 4 3 3 3 2 3 2 3 4 5 7 8 7 7 7 7 6 6
11 11 10 9 9 9 8 8 7 7 6 6 5 5 4 3 2 2 1 2 2 2 3 3 4 4 4 3 3 3 3 3 4 4 5 6 6 6 6 6 6 6 6 6
11 10 9 9 8 8 7 7 7 6 6 5 5 4 3 2 2 2 2 2 2 3 3 3 4 4 4 3 3 3 3 4 4 5 6 6 6 6 6 6 6 6 6 6
10 10 9 8 8 7 7 6 6 6 5 5 4 3 2 2 2 2 2 2 2 2 3 3 4 4 4 4 4 4 4 4 5 5 6 6 6 6 5 5 5 5 6 6
10 9 8 8 7 7 6 6 6 5 5 4 3 2 2 2 2 2 2 2 3 3 4 4 4 5 4 4 4 5 5 5 6 6 7 7 7 6 5 5 6 7 7 8
9 8 7 7 7 6 6 6 5 5 4 3 2 2 2 3 3 3 4 4 5 5 5 6 5 5 5 5 5 6 7 7 7 8 8 8 8 7 6 7 8 8 8 9
8 7 7 6 6 6 6 5 5 5 4 2 2 2 2 3 3 3 4 5 6 6 6 6 6 6 6 6 6 7 7 7 8 8 9 8 7 7 8 8 9 9 9 10
7 7 6 6 6 6 5 5 5 5 4 3 2 3 3 3 5 6 6 7 8 7 7 7 6 7 6 6 7 7 8 8 8 8 8 8 8 8 9 10 11 11 11 11
7 6 6 6 6 6 5 5 5 5 3 2 3 3 3 4 4 6 7 8 9 10 9 8 8 8 8 8 8 7 8 8 8 9 9 8 9 9 10 11 12 12 12 12
6 6 6 6 6 5 6 5 4 4 3 2 2 3 4 5 6 7 7 8 9 10 10 9 8 8 8 8 9 8 8 8 9 9 10 10 10 10 11 11 11 12 13 13
7 6 6 6 6 5 5 5 5 3 3 2 2 3 4 5 6 7 7 8 9 10 8 8 8 8 8 8 9 9 10 10 11 11 11 11 11 11 11 12 12 12 12 12

GEFSNGP_850_meantemp_006.txt.gz
Temperature
27 28 28 27 26 25 24 23 22 22 22 21 19 18 17 17 16 16 16 16 15 14 14 13 13 13 13 12 12 12 12 11 11 11 11 11 11 10 10 10 10 10 10 11
26 28 27 25 24 23 23 22 22 21 21 21 19 18 17 17 17 16 16 16 15 15 14 14 13 13 12 12 12 12 11 11 11 11 11 11 11 10 10 10 10 10 10 10
25 27 27 22 21 21 21 21 21 20 20 19 18 17 17 17 16 17 16 15 14 14 14 13 13 12 12 12 11 11 11 10 10 10 10 11 11 11 11 10 10 10 10 10
25 26 23 20 22 22 21 21 21 20 18 18 17 17 16 16 16 15 14 14 13 13 13 12 12 12 12 11 11 10 10 9 9 9 9 9 10 10 10 10 10 10 10 10
25 25 23 21 21 21 20 20 19 18 18 17 16 16 16 16 15 14 14 13 13 12 12 12 12 11 11 11 10 10 9 9 8 8 8 8 8 9 9 9 10 10 10 10
24 23 22 20 21 21 21 20 18 17 17 16 16 15 15 14 14 13 13 13 12 12 12 11 11 11 10 10 10 9 9 8 7 7 7 7 7 8 8 9 9 9 10 10
23 22 22 21 21 20 18 17 17 17 16 15 15 14 14 14 13 13 13 12 12 12 11 11 11 10 10 9 9 8 8 7 6 6 6 6 7 7 7 8 8 9 9 9
22 21 21 21 20 18 17 17 16 16 15 15 14 14 14 13 13 13 12 12 12 11 11 10 10 9 8 8 7 7 6 6 5 5 5 6 6 6 7 7 8 8 8 9
21 21 21 20 19 18 17 16 16 15 15 14 14 14 14 13 13 12 12 11 11 10 10 9 8 7 6 6 5 5 4 4 4 5 5 5 5 6 6 7 7 7 8 9
20 21 20 19 18 17 16 16 15 15 14 14 14 13 13 13 12 12 11 10 9 8 8 7 6 5 4 4 3 3 3 3 4 4 4 5 5 5 6 6 7 7 8 8
20 20 18 18 17 16 16 15 15 14 14 14 13 13 12 12 11 11 9 8 7 6 5 4 3 3 3 2 2 2 3 3 3 4 4 5 5 5 6 6 6 7 7 7
18 18 17 17 16 16 15 15 14 14 13 13 13 12 12 11 10 9 8 6 5 4 3 3 2 2 2 2 2 2 3 3 4 4 4 4 5 5 5 6 6 6 7 7
18 17 16 16 16 15 15 14 14 13 13 12 12 11 11 10 9 7 6 4 3 3 2 2 2 2 3 3 3 3 3 3 4 4 4 4 4 4 5 6 6 6 7 7
17 16 16 16 15 15 14 14 13 13 12 12 11 10 9 8 7 6 4 4 3 3 3 3 3 3 3 3 3 3 4 4 4 4 4 4 4 4 5 5 6 6 7 7
17 16 16 15 15 14 14 13 13 12 12 11 10 9 8 7 5 4 4 3 3 3 3 3 3 3 4 4 4 4 4 3 3 3 4 4 4 4 5 5 6 6 6 7
16 16 15 15 14 13 13 12 12 11 11 10 9 8 7 6 5 4 4 4 4 3 4 3 4 4 4 4 4 4 4 3 3 3 3 4 4 4 5 5 6 6 6 7
16 16 15 14 13 13 12 12 11 11 10 9 8 7 6 5 4 4 4 4 4 4 4 4 4 4 4 5 5 4 4 4 3 3 4 4 4 5 5 6 6 6 6 7
16 15 14 14 13 12 12 11 10 10 9 8 7 6 5 4 4 4 4 4 5 5 5 5 5 5 5 5 5 5 5 5 5 4 4 5 5 5 6 6 7 7 7 6
15 15 14 13 12 12 11 10 10 9 8 7 6 6 5 4 4 4 5 5 5 5 5 6 6 6 6 6 6 6 6 6 6 6 6 6 7 7 7 7 7 7 7 7
15 15 14 13 12 11 11 10 9 9 8 7 6 5 5 4 5 5 5 5 5 5 5 6 6 6 6 6 6 7 7 7 7 8 8 8 7 7 8 7 7 7 7 7
15 14 13 12 11 11 10 10 9 8 7 6 5 5 4 5 5 6 6 6 6 6 6 7 7 7 7 7 7 7 7 7 8 8 8 8 8 7 7 7 7 7 7 7
14 13 12 11 10 10 10 10 9 8 7 6 5 5 5 5 6 7 7 6 7 7 7 7 7 8 8 8 8 7 7 7 7 7 7 7 7 7 7 7 6 7 7 7
13 12 11 10 10 10 10 9 9 8 7 6 5 5 5 4 5 5 6 7 8 8 8 8 8 8 8 9 8 8 8 8 8 8 7 7 7 7 7 7 7 7 7 7
12 12 11 10 10 10 10 9 9 8 6 6 5 5 5 5 5 6 7 8 8 9 9 8 9 9 9 9 9 9 9 9 9 9 9 8 8 8 8 9 9 9 9 9
12 11 11 10 10 10 10 9 8 7 6 6 5 5 5 5 5 6 7 8 9 9 9 9 9 9 9 9 10 10 10 10 10 10 10 10 10 10 10 10 10 10 11 11
12 11 12 10 10 10 9 9 8 7 6 5 5 4 4 5 5 6 7 8 9 9 9 9 9 9 9 10 10 10 11 11 11 11 11 11 11 11 11 11 12 12 12 12
12 12 12 12 11 9 9 8 7 6 5 4 4 4 4 4 5 6 7 8 8 9 9 9 9 9 9 9 10 10 11 11 11 12 12 12 12 12 12 12 12 12 12 12

GEFSNGP_850_meantemp_012.txt.gz
Temperature
20 20 20 19 20 19 17 17 16 16 15 14 14 14 14 14 14 14 14 13 13 13 13 13 13 13 12 12 12 12 12 12 11 11 11 11 10 10 10 10 10 10 10 10
19 20 19 19 19 18 18 17 16 15 14 14 14 14 14 14 14 14 14 14 13 13 13 13 13 12 12 12 12 12 11 11 11 11 11 10 10 10 10 9 9 9 9 9
18 20 19 16 17 17 17 15 14 13 13 12 12 13 13 14 14 14 13 13 13 13 12 12 12 11 11 11 11 11 11 11 11 11 10 10 10 10 9 9 9 9 9 9
17 18 18 17 18 18 16 14 15 14 13 13 13 14 14 14 14 13 13 12 12 11 11 11 10 10 10 10 10 10 10 10 10 10 10 9 9 9 9 9 8 8 8 8
15 17 17 18 17 17 16 14 14 13 12 14 14 13 13 13 13 12 12 11 11 10 9 9 9 8 8 8 7 7 8 8 8 8 8 8 8 8 8 8 8 8 8 8
16 17 17 16 17 18 16 14 14 14 13 13 12 10 10 12 12 11 10 10 9 8 8 7 7 6 5 5 5 5 5 5 5 6 6 7 7 7 7 7 7 7 7 7
16 16 16 16 17 15 13 12 14 14 14 13 11 11 12 12 11 10 9 8 8 7 6 5 5 4 4 4 4 4 3 4 4 4 4 5 5 5 6 6 6 6 6 7
14 15 15 16 15 14 13 15 14 14 13 13 12 12 11 10 9 9 8 7 6 5 5 4 4 4 3 3 3 3 3 3 3 3 3 3 4 4 4 5 5 5 6 6
14 14 15 16 16 15 15 15 14 13 13 12 12 11 10 9 8 8 7 6 5 5 4 4 4 4 3 4 3 3 3 3 3 3 3 3 3 3 3 4 4 5 5 6
15 15 16 16 16 15 15 14 14 13 12 12 11 10 9 8 8 7 6 5 5 4 4 4 4 4 4 4 4 3 3 3 3 3 3 3 3 3 3 4 4 5 5 6
15 16 16 16 15 15 14 14 13 13 12 11 10 9 8 8 7 6 5 5 4 4 4 4 4 4 4 4 4 4 4 3 3 3 3 3 4 4 4 4 4 5 5 6
13 15 14 15 15 14 14 13 13 12 11 10 9 9 8 7 6 6 5 5 4 4 4 4 4 5 5 4 4 4 4 4 3 3 3 3 4 4 4 4 4 5 5 6
17 16 16 15 15 14 14 13 12 11 10 10 9 8 7 7 6 6 5 5 5 4 4 4 5 5 5 5 5 4 4 4 4 3 4 4 4 4 4 4 5 5 5 6
17 16 16 15 14 14 13 12 12 11 10 9 8 8 7 6 6 6 5 5 5 5 5 5 5 5 5 5 5 5 4 4 4 3 4 4 4 4 4 4 5 5 5 5
17 16 16 15 14 14 13 12 11 10 9 9 8 8 7 6 6 6 6 5 5 5 5 5 5 6 6 6 6 5 5 4 4 4 4 4 4 4 4 4 5 5 5 5
16 16 15 15 14 13 12 11 10 10 9 8 8 7 6 6 7 7 7 6 6 5 5 5 6 6 6 6 6 6 6 5 5 4 4 4 4 5 5 5 5 5 6 6
16 16 15 14 13 13 12 11 10 9 9 8 8 7 6 7 7 7 7 7 6 6 6 6 6 7 7 7 7 7 6 6 6 5 5 5 5 5 5 5 5 5 6 6
16 16 15 14 13 13 12 11 10 9 9 8 8 7 6 6 6 7 7 7 7 7 7 7 7 7 7 7 7 7 7 7 7 6 6 6 6 6 6 6 6 6 6 6
16 16 15 14 13 12 11 10 10 9 9 8 7 7 6 6 6 7 7 7 6 6 7 7 7 8 8 7 7 7 7 7 7 7 7 7 7 7 7 7 7 6 6 6
16 15 14 14 13 12 11 10 9 9 9 8 7 7 6 6 6 7 7 7 6 6 7 7 8 8 8 8 8 7 7 7 7 7 7 7 7 7 7 7 7 7 6 6
16 15 14 14 13 12 11 10 9 9 8 8 7 6 6 6 6 6 7 7 8 8 8 8 8 8 8 9 9 8 8 8 7 7 7 7 7 7 7 7 7 7 6 6
15 15 14 13 12 11 10 10 9 9 8 8 7 6 6 6 6 7 6 6 7 8 8 8 8 8 9 9 9 9 8 8 8 7 7 7 7 7 7 7 7 7 7 7
15 15 14 13 12 11 10 10 9 9 8 7 7 6 5 5 5 5 6 7 7 8 8 8 8 9 9 10 10 9 9 9 8 8 7 7 7 7 7 7 7 7 7 8
15 14 14 13 12 11 10 10 9 8 8 7 7 6 5 5 6 5 5 6 7 8 8 8 9 9 10 10 10 10 10 9 9 9 8 8 8 7 7 7 7 7 8 8
15 14 14 13 12 11 10 10 9 8 8 7 6 6 5 5 5 5 5 6 7 8 8 8 9 9 10 10 10 11 10 10 10 10 9 9 9 8 8 8 8 8 8 8
15 15 14 13 12 11 10 10 9 8 7 7 6 6 6 5 5 5 5 5 6 6 7 7 8 9 9 10 10 10 11 11 11 11 10 10 9 9 9 9 9 9 9 9
15 14 14 13 12 11 10 10 9 8 7 6 6 6 5 5 4 4 4 4 5 5 5 6 6 7 8 9 10 10 11 11 11 11 11 11 11 10 10 10 10 10 10 10

GEFSNGP_850_meantemp_018.txt.gz
Temperature
17 17 17 17 17 16 16 16 14 14 13 13 12 11 12 13 13 12 12 11 10 10 9 9 8 7 7 7 7 7 7 7 8 8 9 9 9 10 10 11 11 11 10 10
17 17 17 16 17 16 16 15 14 13 13 12 13 13 12 12 12 11 11 10 9 9 8 7 6 6 5 5 5 5 5 5 6 6 6 7 8 8 9 10 10 10 10 10
15 17 16 16 16 16 15 14 14 12 12 11 10 10 11 12 11 11 10 9 8 7 7 6 5 5 5 4 4 4 4 5 5 5 5 5 6 6 7 8 9 9 9 9
14 16 17 15 16 16 15 13 13 12 11 11 11 12 12 12 10 9 9 8 7 7 6 5 5 4 4 4 4 4 4 4 4 4 4 4 4 5 5 6 7 8 8 9
13 16 16 16 16 15 14 12 12 12 11 12 12 10 10 11 9 9 8 7 7 6 5 5 5 4 4 4 4 4 4 4 4 4 3 3 4 4 4 5 6 6 7 7
13 16 16 16 16 16 14 12 13 12 11 11 10 7 8 10 9 8 8 7 6 6 5 5 5 4 4 4 4 4 4 4 4 3 3 3 3 3 3 4 4 5 6 7
14 15 14 15 15 15 14 13 14 13 13 12 9 9 10 9 8 8 7 7 6 6 6 5 5 4 4 4 4 4 4 4 4 4 3 3 3 3 3 3 4 4 5 6
12 15 15 15 14 13 13 15 14 13 13 12 11 10 9 8 8 7 7 7 6 6 6 6 5 5 4 4 4 4 4 4 4 4 3 3 3 3 3 3 3 4 4 5
13 14 15 16 15 16 15 14 14 13 12 11 10 9 8 8 7 7 7 7 6 6 6 6 6 5 5 5 5 4 4 4 4 4 4 3 3 3 3 3 3 3 4 4
12 13 14 15 15 15 15 14 13 13 12 11 9 9 8 7 7 7 7 7 6 6 6 6 6 6 5 5 5 5 4 4 4 4 4 4 3 3 3 3 3 3 4 4
13 13 14 15 15 15 14 14 13 12 11 10 9 8 8 7 7 7 7 7 7 6 6 6 6 6 6 5 5 5 5 4 4 4 4 4 4 3 3 4 3 4 4 4
14 16 14 16 17 15 14 14 13 12 11 10 9 8 8 7 7 7 7 7 7 7 7 6 6 6 6 6 6 5 5 5 4 4 4 4 4 4 4 4 4 4 4 4
19 19 18 17 16 15 14 14 13 12 11 10 9 8 7 7 7 7 7 8 7 7 7 6 6 6 6 6 6 5 5 5 5 4 4 4 4 4 4 4 4 4 4 4
19 18 17 16 16 15 14 13 12 12 10 9 9 8 7 7 7 7 7 8 8 7 7 7 6 6 6 6 6 6 6 5 5 5 4 4 4 4 4 4 4 4 5 5
19 18 18 17 16 15 14 13 12 11 10 9 9 8 7 7 7 7 7 8 8 8 8 7 7 7 7 6 6 6 6 6 6 5 5 5 5 4 4 5 5 5 5 5
19 17 17 16 15 15 14 13 12 11 10 9 9 8 7 7 7 7 7 8 8 7 7 7 7 7 7 7 7 7 6 6 6 6 5 5 5 5 5 5 5 5 5 5
18 17 17 16 16 15 14 13 12 11 10 9 8 8 7 7 7 8 8 8 8 7 7 7 7 8 7 7 7 7 7 6 6 6 6 6 6 5 5 5 5 5 5 5
20 19 18 17 16 15 14 13 12 11 10 9 8 8 7 7 7 7 7 8 8 9 8 8 8 8 8 8 7 7 7 7 6 7 7 6 6 6 6 5 5 5 5 6
19 18 17 16 16 15 14 13 12 11 10 9 9 8 7 7 6 6 7 7 7 8 8 8 8 8 8 8 7 7 7 7 7 7 7 7 7 6 6 6 6 5 5 6
18 18 17 16 15 14 14 13 12 11 10 9 9 8 8 7 7 7 6 6 5 5 6 7 7 8 8 8 7 7 7 7 7 7 7 7 7 6 6 6 6 6 5 6
18 18 17 16 15 14 14 13 12 11 10 9 9 8 8 7 7 7 6 6 6 6 6 7 7 7 7 7 7 7 7 7 7 7 7 7 7 6 6 6 6 6 6 6
18 17 17 16 15 14 13 13 12 11 10 9 9 8 8 7 7 7 6 5 5 6 6 6 6 6 7 7 7 7 7 7 7 7 7 7 7 6 6 6 6 6 6 6
18 17 16 16 15 14 13 13 12 11 10 9 8 8 7 7 6 6 6 5 5 5 5 5 5 6 7 7 7 7 7 7 7 7 7 7 7 7 7 7 7 7 7 7
17 17 16 15 14 13 13 13 12 11 10 9 8 8 7 7 7 6 5 5 5 5 5 5 5 5 6 6 7 7 8 8 8 8 7 7 7 7 7 7 7 7 7 8
17 16 16 15 14 14 14 13 12 11 10 9 8 7 7 7 6 6 5 5 5 5 4 4 5 5 5 6 6 7 7 8 8 8 8 8 8 8 8 8 8 8 8 8
17 16 16 15 15 14 13 13 12 11 10 9 8 7 7 6 6 6 5 5 5 5 4 4 4 5 5 5 6 7 7 8 8 9 9 8 8 8 8 8 8 9 9 9
16 16 15 15 15 14 13 13 12 11 10 9 8 7 6 6 6 5 5 5 5 4 4 4 4 4 4 5 5 6 7 8 8 9 9 9 9 9 9 9 9 9 9 9

GEFSNGP_850_meantemp_024.txt.gz
Temperature
25 25 25 24 24 23 23 23 23 22 22 22 21 20 18 17 16 15 15 14 13 12 11 10 9 9 8 7 7 6 6 6 6 6 6 6 6 6 6 6 6 6 7 7
25 24 24 23 23 23 22 22 22 22 22 22 20 19 18 17 16 15 14 13 12 11 10 10 9 8 8 7 7 6 6 6 6 6 6 6 6 5 5 5 5 6 6 6
25 24 24 24 24 23 23 23 22 22 22 21 20 18 17 16 15 14 13 12 11 11 10 9 9 8 7 7 6 6 6 6 6 6 6 5 5 5 5 5 5 5 5 6
25 24 23 24 24 23 22 22 22 22 21 21 19 17 16 15 14 13 12 11 11 10 10 9 9 8 7 7 6 6 6 6 6 5 5 5 5 5 5 5 4 4 5 5
24 24 25 23 22 22 22 22 22 21 21 19 19 17 18 15 14 13 12 11 10 10 9 9 8 8 7 6 6 6 6 6 5 5 5 5 5 5 5 4 4 4 4 4
24 23 23 24 23 21 21 21 22 21 20 19 18 18 18 15 13 12 11 10 10 9 9 9 8 7 6 6 6 6 6 5 5 5 5 5 5 5 5 4 4 4 4 4
24 23 24 24 22 21 21 22 21 20 19 18 18 17 15 14 12 11 11 10 9 9 9 8 8 7 6 6 6 5 5 5 5 5 5 5 5 5 5 4 4 4 4 4
23 23 24 23 22 22 22 21 20 19 18 17 16 15 14 13 12 11 10 10 9 9 9 8 7 7 6 6 6 5 5 5 5 5 5 5 5 5 5 4 4 4 4 4
24 24 23 22 22 22 21 20 19 18 18 16 15 15 14 13 12 11 10 10 9 9 8 8 7 7 6 6 6 5 5 5 5 5 5 5 5 5 5 5 4 4 4 4
23 24 23 22 21 21 20 19 18 17 16 16 15 14 13 12 11 10 10 9 9 8 8 8 7 7 6 6 6 5 5 5 5 5 5 5 5 5 5 5 4 4 4 4
23 23 23 22 21 21 20 18 17 17 16 15 14 13 13 12 11 10 9 9 8 8 7 7 7 7 6 6 6 6 6 5 5 6 6 5 5 5 5 5 4 4 4 4
24 24 23 23 22 21 20 18 17 16 16 15 14 13 12 11 10 9 9 8 8 7 7 7 7 6 6 6 6 6 6 6 6 6 6 6 6 6 6 5 5 5 5 5
23 23 23 23 21 20 19 18 17 16 15 14 13 12 11 11 10 9 9 8 7 7 7 6 6 6 6 6 6 6 6 6 6 6 6 6 6 6 6 6 5 5 5 5
22 21 21 21 21 20 19 18 17 16 15 14 13 12 11 10 10 9 8 7 7 6 6 6 6 6 6 6 6 6 6 6 6 6 7 7 7 7 7 6 6 6 5 5
21 20 20 21 20 19 18 17 17 16 15 14 13 12 11 10 9 8 8 7 7 6 6 6 6 6 6 6 6 6 6 6 6 6 7 7 7 7 7 7 6 6 6 5
22 20 19 20 19 19 18 17 17 16 15 14 13 12 11 10 9 8 7 7 6 6 5 5 5 6 6 6 6 6 6 6 6 7 7 7 7 7 7 7 7 6 6 6
21 20 19 19 19 18 18 18 17 16 15 14 12 11 10 9 9 8 7 7 6 5 5 5 5 5 6 6 6 6 6 7 7 7 7 8 7 7 7 7 7 6 6 6
20 20 20 19 19 19 18 17 16 15 14 13 12 11 10 9 8 8 7 7 6 6 5 4 5 5 6 6 6 6 6 7 7 7 7 7 7 7 7 7 7 6 6 6
20 19 19 19 18 18 18 17 16 15 13 12 11 10 10 9 8 8 7 7 6 6 5 6 6 5 5 6 6 6 6 7 7 7 7 7 7 7 7 7 7 7 7 7
18 18 18 18 17 17 17 16 15 14 13 12 11 10 9 9 8 8 7 6 6 5 5 5 5 5 5 6 6 6 6 6 7 7 7 7 7 7 7 7 7 7 7 7
17 17 17 17 17 16 16 15 15 14 13 12 11 10 9 9 8 8 7 7 6 6 6 5 4 4 5 5 6 6 6 6 6 7 7 7 8 7 7 7 7 7 7 7
16 16 16 17 16 16 16 15 15 14 13 12 11 10 10 9 9 8 7 7 6 6 6 4 4 4 5 5 5 5 6 6 6 7 7 7 8 8 8 8 8 7 7 7
15 15 15 15 15 16 15 15 15 14 13 12 12 11 10 10 9 8 8 7 6 6 6 4 4 4 5 5 5 5 6 6 6 6 7 7 8 8 8 8 8 8 8 8
14 14 14 14 14 14 14 15 14 14 13 12 11 11 10 10 9 8 8 7 7 7 5 4 4 4 5 5 5 5 5 6 6 6 7 7 8 8 8 8 8 8 8 8
14 14 14 14 14 14 14 14 14 13 13 12 11 11 10 10 9 8 8 7 7 6 5 4 4 4 4 4 4 5 5 5 6 6 6 7 7 8 8 8 9 9 9 9
13 13 14 13 13 13 14 14 13 13 12 12 11 10 10 9 8 8 7 7 6 6 5 4 4 4 4 4 4 4 5 5 6 6 7 7 7 8 8 8 9 9 9 9
13 13 13 13 13 13 13 13 12 12 12 12 11 10 10 9 8 7 7 6 6 5 5 4 4 3 3 3 3 4 4 5 6 6 7 7 7 8 8 8 9 9 9 10

GEFSNGP_850_meantemp_030.txt.gz
Temperature
29 29 29 29 29 28 27 27 26 26 26 26 25 24 23 22 21 20 19 18 17 16 15 14 13 12 12 11 11 10 10 9 9 9 8 8 8 8 8 8 8 7 7 7
27 28 28 28 28 28 27 27 27 26 26 26 25 24 23 22 21 20 19 17 16 15 15 14 13 12 12 11 11 10 9 9 9 8 8 8 8 8 8 8 7 7 7 7
26 28 28 27 28 28 27 27 27 25 25 25 24 23 22 21 20 19 18 17 16 15 14 13 13 12 12 11 10 10 9 9 8 8 8 8 8 7 7 7 7 7 7 7
26 26 25 27 29 28 27 27 27 26 25 25 24 23 22 20 19 18 17 16 15 14 14 13 13 12 11 11 10 9 9 8 8 8 8 7 7 7 7 7 7 7 7 7
26 25 26 27 28 27 26 25 26 25 25 24 24 23 21 19 18 18 16 15 14 14 13 13 12 12 11 10 10 9 9 8 8 8 7 7 7 7 7 7 7 7 7 7
26 25 24 27 28 27 26 25 25 25 24 24 23 22 22 19 18 17 16 15 14 14 13 12 12 11 10 10 9 9 8 8 7 7 7 7 7 7 7 7 7 7 7 7
25 25 26 28 27 27 25 24 24 24 23 23 22 21 20 19 18 17 16 15 14 13 13 12 11 11 10 9 9 8 8 7 7 7 7 7 7 7 7 7 7 7 7 7
26 26 26 27 27 26 25 25 24 24 23 23 22 21 20 19 18 16 15 15 14 13 12 12 11 10 9 9 8 8 8 7 7 7 7 7 7 7 7 7 7 7 7 7
27 26 26 27 26 26 25 25 24 24 23 22 21 20 20 18 17 16 15 14 13 12 12 11 10 10 9 8 8 7 7 7 7 7 7 7 7 7 7 7 7 7 7 6
26 27 27 27 27 26 26 25 24 24 23 22 21 20 19 18 17 16 15 13 13 12 11 11 10 9 8 8 7 7 7 7 7 7 7 7 7 8 8 8 7 7 7 6
26 27 27 27 26 26 26 25 24 24 23 22 21 20 19 18 16 15 14 13 12 12 11 10 9 9 8 7 7 7 7 7 7 7 7 7 8 8 8 8 8 7 7 6
27 27 27 26 26 26 26 25 24 24 23 22 21 20 18 17 16 15 14 13 12 11 10 10 9 8 7 7 7 6 6 6 7 7 7 7 8 8 8 8 8 7 7 6
27 27 27 26 26 26 26 25 24 24 22 21 20 19 18 17 15 15 14 13 12 11 10 9 8 8 7 7 6 6 6 6 6 7 7 7 8 8 8 8 8 8 7 7
27 27 26 26 26 25 25 25 25 24 23 21 20 19 17 16 15 14 13 12 11 11 10 9 8 7 7 6 6 6 6 6 7 7 7 8 8 8 8 8 8 8 8 7
26 26 26 26 25 25 25 25 24 24 23 21 20 18 17 16 15 14 13 12 11 10 10 9 8 7 7 7 6 6 6 7 7 7 7 8 8 8 9 9 8 8 8 7
25 26 26 26 25 25 24 24 24 23 22 21 20 19 17 16 15 14 13 12 11 10 9 8 7 7 7 7 6 6 7 7 7 7 8 8 8 9 9 9 8 8 8 8
24 24 24 24 24 24 24 24 24 23 22 21 20 19 17 15 14 13 12 12 11 10 9 8 7 7 7 6 6 6 6 7 8 8 8 8 8 9 9 9 9 8 8 8
23 23 23 23 23 23 23 23 23 23 22 21 20 18 16 15 14 13 12 11 10 10 10 8 8 8 7 6 6 6 6 7 7 8 8 8 9 9 9 9 9 9 9 8
21 21 21 21 22 22 22 22 22 22 21 20 18 17 16 15 14 13 12 11 11 10 10 9 8 7 7 6 7 7 6 7 7 8 8 8 9 9 9 9 9 9 9 9
19 19 19 20 20 20 21 21 21 20 20 18 17 16 15 14 13 12 12 11 11 11 10 9 8 7 7 7 7 7 6 7 7 8 8 8 9 9 9 9 9 9 9 9
17 17 18 18 18 18 19 19 19 19 18 17 16 15 15 14 13 12 12 12 11 11 10 9 8 7 7 7 7 6 6 7 7 7 8 8 8 9 9 9 9 9 9 9
15 16 16 16 17 17 17 18 18 18 17 16 16 15 14 14 13 12 12 12 11 11 10 9 8 8 8 7 6 6 6 6 7 7 7 8 8 8 9 9 9 9 9 9
14 14 14 15 15 16 16 16 17 17 17 16 15 15 14 14 13 13 12 12 11 11 10 9 8 8 8 6 6 6 6 6 6 7 7 7 8 8 9 9 9 9 9 9
13 13 14 14 14 15 15 16 16 16 16 16 15 15 14 13 13 13 12 12 11 10 9 8 8 8 7 6 5 5 5 5 6 6 7 7 8 8 8 9 9 9 9 9
13 13 13 13 14 14 15 15 16 16 16 15 15 15 14 13 12 12 12 11 11 10 9 8 8 7 6 5 5 5 5 5 5 6 6 7 7 8 8 8 9 9 9 9
13 13 13 13 13 13 14 14 15 15 15 15 15 15 14 13 12 11 11 10 10 9 8 8 7 7 6 5 5 4 4 4 5 5 6 6 7 7 8 8 9 9 9 9
12 13 13 13 14 14 14 14 14 14 14 14 14 13 13 12 11 11 10 10 9 8 8 8 7 6 6 5 4 4 3 4 4 5 5 6 6 7 8 8 8 9 9 9

GEFSNGP_850_meantemp_036.txt.gz
Temperature
23 23 24 25 25 24 22 20 19 19 18 18 17 17 19 20 19 19 18 17 17 16 15 15 14 13 13 12 12 12 11 11 11 10 10 9 9 9 8 8 8 7 7 7
22 24 24 24 25 25 24 23 21 19 19 18 19 20 20 20 19 18 18 17 17 16 15 14 14 13 13 12 12 11 11 11 10 10 9 9 9 8 8 8 7 7 7 7
20 21 22 22 24 24 24 23 21 20 19 19 18 18 19 19 19 18 18 17 17 16 15 14 13 13 12 12 11 11 11 10 10 9 9 9 8 8 8 8 7 7 7 7
19 20 22 21 23 24 23 22 21 19 19 19 19 19 19 20 19 19 18 17 17 16 15 14 13 13 12 12 11 11 10 10 9 9 9 8 8 8 8 7 7 7 8 8
18 20 21 22 23 23 22 21 20 19 19 19 19 18 18 19 19 19 18 17 16 15 15 14 13 12 12 11 11 10 10 9 9 8 8 8 8 7 7 7 7 8 8 8
19 20 20 21 23 24 21 20 21 20 19 20 18 16 17 20 19 18 18 17 16 15 15 14 13 12 11 11 10 10 9 9 8 8 8 7 7 7 7 7 8 8 8 8
19 19 20 22 24 24 21 20 22 22 22 22 19 19 21 20 19 18 18 17 16 15 15 14 13 12 11 10 10 9 9 9 8 8 7 7 7 7 7 7 8 8 8 8
18 19 20 22 24 22 21 24 24 23 23 23 22 22 21 20 19 18 18 17 16 15 14 13 12 12 11 10 10 9 9 8 8 8 7 7 7 7 7 7 8 8 8 8
19 19 22 25 25 26 26 24 24 24 23 23 22 22 21 20 19 19 18 17 16 15 14 13 12 11 11 10 9 9 9 8 8 8 7 7 7 7 7 8 8 8 8 7
20 20 22 25 26 26 25 25 25 24 24 23 23 22 21 20 19 19 18 17 16 15 14 13 12 11 10 10 9 9 8 8 8 7 7 7 7 7 7 8 8 8 8 7
19 20 23 25 26 26 26 25 25 24 24 23 23 22 21 20 20 19 18 17 16 15 14 13 12 11 10 10 9 9 8 8 7 7 7 7 7 7 8 8 8 8 8 7
19 22 20 24 26 26 25 25 25 24 24 23 23 22 21 21 20 19 18 17 16 15 14 13 12 11 10 10 9 9 8 8 7 7 7 7 7 8 9 8 8 8 8 8
24 25 25 25 26 25 25 25 25 25 24 24 23 22 21 20 20 19 18 17 16 15 14 13 12 11 11 10 9 8 8 7 7 7 7 7 7 8 8 9 9 8 8 8
25 25 25 25 25 25 25 25 24 24 24 23 23 22 21 20 19 18 18 17 16 15 14 13 12 12 11 10 9 9 8 7 7 7 7 7 8 8 8 8 8 9 8 8
24 24 24 24 24 24 24 24 23 23 23 23 22 22 21 20 19 18 17 17 16 15 14 13 13 12 11 10 9 9 8 8 7 7 7 7 8 8 8 8 8 8 8 8
21 21 21 21 21 21 21 21 21 22 22 22 22 21 21 20 19 18 17 16 16 15 14 14 13 12 11 10 10 9 8 7 7 7 7 8 8 8 8 8 8 8 8 8
17 17 17 17 17 18 18 19 19 20 20 21 21 21 20 19 18 17 17 16 16 15 14 14 13 12 11 10 10 9 8 8 7 7 7 7 8 8 8 8 8 8 8 8
15 15 15 15 15 16 17 17 18 18 19 19 20 19 19 18 18 18 17 16 15 15 14 13 12 12 11 10 10 9 8 7 7 7 7 7 8 8 8 8 8 8 8 8
14 14 15 15 15 15 15 16 16 17 17 18 18 18 18 18 18 17 17 16 15 15 14 13 12 11 11 10 9 8 8 7 7 7 7 7 7 8 8 8 8 8 8 8
14 14 14 14 14 14 14 15 15 16 16 16 16 17 17 17 17 17 16 16 16 15 14 13 12 11 11 10 9 8 8 7 7 7 7 7 7 8 8 8 8 8 8 8
13 13 13 13 13 13 14 14 14 14 14 14 14 15 15 15 16 16 15 15 15 14 13 12 12 11 10 9 9 8 7 7 6 6 6 7 7 8 8 8 8 8 8 8
12 12 12 12 12 13 13 13 13 13 13 13 13 13 14 14 14 15 15 15 14 13 13 12 11 10 10 9 8 7 7 6 6 6 6 6 7 7 7 8 8 8 8 8
11 12 12 12 12 12 12 12 12 12 12 12 12 13 13 13 14 14 14 14 13 12 12 11 10 10 9 8 8 7 6 6 6 6 6 6 6 7 7 7 8 8 8 8
11 11 11 11 12 12 12 12 11 11 11 11 12 12 12 13 13 13 13 13 13 12 11 10 10 9 8 8 7 6 6 6 5 5 5 5 6 6 7 7 8 8 8 8
10 11 11 11 11 11 11 11 11 11 11 11 11 11 11 12 12 12 12 12 11 11 10 9 8 8 7 7 6 6 5 5 5 5 5 5 6 6 7 7 7 8 8 8
10 10 10 10 10 10 10 10 10 10 10 10 10 10 10 10 11 11 11 10 10 10 9 8 8 7 7 6 6 5 5 5 4 4 4 5 5 6 6 7 7 8 8 8
10 10 10 10 10 10 10 10 10 10 10 9 9 9 9 9 9 9 9 9 9 8 8 7 7 6 6 5 5 5 4 4 4 4 4 4 5 5 6 7 7 7 8 8

GEFSNGP_850_meantemp_042.txt.gz
Temperature
19 20 20 21 21 20 18 17 17 18 17 18 17 16 19 20 20 20 20 19 19 18 18 17 16 15 14 13 13 12 12 11 11 10 10 10 9 9 9 9 8 8 8 8
21 22 21 21 21 21 20 19 18 19 18 17 18 18 18 19 19 20 20 20 19 18 17 17 16 15 14 13 13 12 12 11 11 10 10 9 9 9 9 8 8 8 8 8
19 20 21 21 22 22 22 20 19 19 19 18 17 16 19 20 20 20 20 20 19 18 17 17 16 15 14 13 12 12 11 11 10 10 9 9 9 9 8 8 8 8 8 8
18 21 22 20 21 21 21 21 18 18 18 17 18 21 22 22 21 21 20 20 19 18 17 16 15 15 14 13 12 12 11 11 10 9 9 9 9 8 8 8 8 8 8 8
16 19 20 20 21 21 21 21 19 18 18 18 18 18 20 22 21 21 21 20 19 18 17 16 15 15 14 13 12 12 11 10 10 9 9 9 8 8 8 8 7 7 8 8
16 19 19 20 21 21 21 21 20 19 17 17 17 16 18 23 22 21 21 20 19 18 17 16 15 14 14 13 12 12 11 10 10 9 9 8 8 8 8 7 7 7 8 8
16 17 18 19 20 21 21 19 22 22 21 18 17 20 23 23 22 22 21 20 19 18 17 17 15 14 14 13 12 12 11 10 10 9 8 8 8 8 7 7 7 7 8 8
15 17 18 20 20 20 20 23 24 24 23 22 23 24 23 23 22 22 21 20 19 18 18 16 15 14 14 13 12 12 11 10 10 9 8 8 8 7 7 7 7 7 8 8
16 18 20 21 21 23 23 23 24 24 25 24 23 23 23 23 23 22 21 20 19 18 17 16 15 15 14 13 12 12 11 10 10 9 9 8 7 7 7 7 7 8 8 8
15 17 20 23 23 24 24 24 25 25 24 24 23 24 24 23 23 22 22 20 19 18 17 17 16 15 14 13 12 12 11 10 10 9 9 8 8 7 7 7 8 8 8 8
16 16 19 23 23 22 23 23 24 24 24 24 23 23 23 23 23 23 22 21 19 18 18 17 16 15 14 13 12 12 11 10 10 9 9 9 8 8 8 8 8 8 8 8
16 19 17 19 19 20 21 22 22 22 22 22 22 23 23 23 23 22 21 20 19 18 18 17 16 15 14 13 12 12 11 11 10 9 9 8 8 9 9 8 8 8 8 8
18 18 17 16 16 17 18 19 19 19 20 20 20 21 21 21 21 21 20 19 19 18 18 17 16 15 14 13 12 12 11 10 10 9 9 8 8 8 8 9 9 9 8 8
16 16 15 14 14 15 16 17 18 18 18 18 19 19 19 19 19 19 19 19 18 17 17 16 16 15 14 13 12 12 11 10 10 9 8 8 8 7 7 8 8 9 9 8
13 14 13 14 15 15 16 17 17 17 17 17 17 18 18 18 18 18 17 17 17 17 17 16 16 15 14 13 12 12 11 10 9 9 8 8 7 7 7 8 8 8 8 8
13 13 14 14 14 14 15 15 15 15 15 16 16 16 17 17 17 17 17 16 16 16 16 16 15 15 13 13 12 12 11 10 9 9 8 8 7 7 7 8 8 8 8 8
12 12 12 12 13 13 13 13 13 14 14 15 15 15 15 16 16 16 16 15 15 16 15 15 15 14 13 13 12 11 11 10 9 9 8 7 7 7 7 8 8 8 8 8
12 12 12 12 12 12 13 13 13 13 13 14 14 14 14 14 14 14 14 14 14 14 15 14 14 13 13 12 12 11 11 10 9 8 8 7 7 7 7 7 7 8 8 8
12 12 12 12 12 12 12 12 12 12 12 12 12 12 12 12 13 13 13 13 13 13 14 14 13 13 12 12 11 11 10 10 9 8 7 7 7 7 7 7 7 7 7 8
12 12 12 12 12 12 12 12 12 12 11 11 11 11 11 12 12 12 12 12 12 12 12 12 12 12 12 11 11 10 10 9 8 8 7 7 7 7 7 7 7 7 7 7
11 11 11 11 11 11 11 11 11 11 11 10 10 10 11 11 11 11 11 11 12 12 12 12 12 11 11 10 10 9 9 8 8 7 7 7 6 6 7 7 7 7 7 7
11 10 10 10 10 10 10 10 10 10 10 10 10 10 10 10 10 10 10 11 11 11 11 11 11 11 10 9 9 9 8 8 7 7 6 6 6 6 6 6 6 7 7 7
10 10 9 9 9 9 9 10 10 9 9 9 9 9 9 9 9 9 9 10 10 10 10 10 10 9 9 9 8 8 8 7 6 6 6 6 5 5 5 6 6 6 7 7
9 9 9 9 9 9 9 9 9 9 9 9 9 9 9 9 9 9 9 9 9 9 9 9 9 8 8 7 7 7 6 6 6 5 5 5 5 5 5 5 6 6 6 6
9 9 9 9 9 9 9 9 9 9 9 9 9 8 8 8 8 8 8 8 8 8 8 7 7 7 7 6 6 6 5 5 5 5 5 4 4 4 5 5 6 6 6 6
9 9 9 9 9 9 9 9 9 8 8 8 8 8 8 8 8 8 7 7 7 7 7 7 6 6 6 5 5 5 4 4 4 4 4 4 3 4 4 5 5 6 6 6
8 8 8 8 8 8 8 8 8 8 8 8 8 8 7 7 7 7 7 7 6 6 6 6 5 5 5 4 4 4 4 3 3 3 3 3 3 3 4 4 5 5 6 6

GEFSNGP_850_meantemp_048.txt.gz
Temperature
28 28 28 28 27 27 27 27 27 27 27 28 28 27 27 25 24 23 22 21 21 20 20 19 19 18 17 17 16 15 14 14 13 12 12 11 11 10 10 10 10 9 9 9
27 28 28 27 27 27 27 27 27 27 27 28 27 26 25 25 24 23 22 22 21 21 20 20 19 18 17 17 16 15 14 14 13 12 12 11 11 10 10 10 9 9 9 9
26 27 27 26 27 27 27 28 27 27 28 28 27 26 26 25 24 24 23 23 22 21 20 20 19 18 18 17 16 15 14 14 13 12 12 11 11 10 10 9 9 9 9 9
26 26 25 27 29 28 27 28 28 27 28 27 27 26 25 24 24 24 23 23 22 21 21 20 19 18 18 17 16 15 14 14 13 12 12 11 11 10 10 9 9 9 9 9
26 25 26 28 28 28 27 27 28 28 28 27 26 25 26 25 24 24 24 23 22 22 21 20 19 19 18 17 16 15 15 14 13 12 12 11 10 10 10 9 9 9 8 8
25 24 24 26 27 27 27 26 28 27 27 27 26 26 27 26 25 24 23 23 22 22 21 20 20 19 18 17 16 15 15 14 13 13 12 12 11 11 10 9 9 9 8 8
24 24 25 27 26 26 25 25 26 26 26 26 26 26 26 26 25 24 23 23 22 21 21 20 20 19 18 17 16 15 14 14 13 13 12 12 11 11 10 9 9 9 9 9
25 24 25 26 26 26 24 23 24 24 24 24 24 24 24 24 23 23 22 22 21 21 21 20 20 19 18 17 16 15 14 14 13 13 12 11 11 11 10 9 9 9 9 9
26 26 25 24 23 22 21 21 21 22 22 23 23 23 23 23 22 22 21 21 20 20 20 19 19 19 18 18 16 16 15 14 14 13 12 12 11 10 10 9 9 9 9 9
25 26 24 21 20 19 19 19 19 20 20 21 21 21 21 21 20 20 20 19 19 19 18 18 19 19 18 17 16 16 15 14 14 13 12 11 11 10 10 9 9 9 9 9
24 24 23 20 17 17 17 17 18 18 18 19 19 19 19 18 18 18 18 18 18 18 17 17 17 18 18 17 16 15 15 14 13 12 12 12 11 11 10 9 9 9 8 8
23 20 21 18 16 16 17 17 17 17 17 17 17 17 17 17 17 17 17 17 17 16 16 16 16 17 16 16 16 15 14 13 13 12 12 11 11 10 10 10 9 9 9 8
18 18 17 16 16 16 16 16 16 16 16 16 16 16 16 16 16 16 16 16 16 16 16 16 16 16 15 15 15 15 14 13 13 12 12 11 11 10 10 10 10 9 9 9
16 16 16 15 16 16 16 16 16 16 16 15 15 15 15 15 15 15 15 15 15 15 15 15 15 14 14 14 14 14 13 13 12 12 11 11 11 10 10 10 10 9 9 8
15 15 15 15 15 15 15 15 15 15 15 15 14 14 14 14 14 14 14 14 14 14 13 13 13 13 13 12 12 12 12 12 11 11 11 11 10 10 10 10 9 9 9 9
15 15 14 14 14 14 14 14 14 14 14 14 14 13 13 13 13 13 12 12 12 12 12 12 12 12 12 11 11 11 11 12 11 11 11 11 10 10 10 10 9 9 9 9
14 14 13 13 13 13 13 13 13 13 13 13 12 12 12 12 12 12 11 11 11 11 11 11 11 11 10 10 10 11 11 11 11 10 10 10 10 10 9 9 9 9 9 8
12 12 12 12 12 12 12 12 12 12 12 12 12 11 11 11 11 11 10 10 11 11 11 10 10 10 10 10 10 10 11 11 11 10 10 9 9 9 9 9 8 8 8 8
12 11 11 11 11 11 11 11 11 11 11 11 11 11 10 10 10 10 10 10 10 10 10 9 9 9 9 9 9 9 9 10 10 10 9 9 8 9 9 8 8 8 8 8
11 11 11 11 11 11 11 11 11 10 10 10 10 10 10 10 10 10 10 10 10 9 9 8 8 9 9 9 9 9 9 9 9 9 9 8 8 8 8 8 8 7 7 7
11 11 11 11 11 11 10 10 10 10 10 10 10 10 10 9 9 9 9 9 9 8 8 8 8 8 8 8 8 8 8 8 8 8 8 8 7 7 7 7 7 7 7 7
11 11 11 10 10 10 10 10 10 10 10 9 9 9 9 9 9 9 9 9 8 8 8 8 8 7 7 7 7 7 7 7 7 7 7 7 6 6 6 6 6 6 6 6
10 10 10 10 10 10 9 9 10 10 9 9 9 9 9 9 9 9 9 8 8 7 7 7 7 6 6 6 6 6 6 6 6 6 6 5 5 5 5 5 5 5 5 5
10 10 10 9 9 9 9 9 9 9 9 9 9 9 9 9 9 9 8 8 7 6 6 6 6 6 5 5 5 5 5 5 5 5 5 5 5 5 5 4 4 5 5 5
9 9 9 9 9 9 9 9 9 9 9 9 9 9 9 9 8 8 7 7 6 6 6 5 5 5 4 4 4 4 4 4 4 4 4 4 4 4 4 4 4 4 4 5
9 9 9 9 9 8 9 9 9 9 9 9 9 9 8 8 8 7 7 6 6 5 5 4 4 3 3 3 3 3 3 3 3 3 3 3 3 3 3 3 3 3 4 4
9 9 9 9 9 9 9 9 9 9 8 8 8 8 8 7 7 7 6 6 5 5 4 3 3 2 2 2 2 1 1 2 2 2 2 2 2 2 2 3 3 3 4 4

GEFSNGP_850_meantemp_054.txt.gz
Temperature
28 28 28 28 29 29 29 29 28 28 28 29 29 29 29 28 28 27 27 26 25 24 23 22 21 21 20 19 19 18 18 17 17 16 16 15 15 14 14 13 13 12 12 11
28 29 29 29 30 30 30 29 29 29 29 30 29 29 29 28 28 27 27 26 25 24 23 22 21 20 20 19 19 18 18 18 17 16 16 16 15 15 14 13 13 12 12 12
27 28 28 27 29 29 29 29 29 28 28 29 29 29 28 28 28 27 27 26 25 24 23 22 21 21 20 20 19 18 18 18 17 17 16 16 15 15 14 14 13 13 12 12
27 27 25 27 29 29 28 29 29 29 29 29 29 29 28 28 27 27 27 26 26 25 24 23 22 21 20 20 19 19 18 18 17 17 16 16 15 15 14 14 13 13 12 12
27 26 26 27 27 26 26 27 28 28 28 28 28 28 28 27 27 26 26 26 25 25 24 23 23 22 21 20 19 19 18 18 18 17 16 16 16 15 15 14 14 13 13 12
26 26 25 25 24 25 25 24 25 26 27 27 27 27 26 26 26 25 26 25 25 25 24 24 23 22 21 21 20 19 19 18 18 17 16 16 16 16 15 15 14 14 13 12
26 26 26 24 24 25 23 22 23 24 25 26 26 25 25 25 25 25 25 24 24 24 24 24 23 22 22 21 20 19 19 18 17 17 17 16 16 16 15 15 14 13 13 13
25 24 23 23 23 22 21 22 22 23 24 24 24 24 24 23 23 23 23 23 23 22 23 23 22 22 21 20 20 19 18 18 17 17 16 16 15 15 15 15 14 13 13 13
25 24 22 21 21 21 22 22 22 23 23 23 23 22 22 21 20 20 20 20 21 21 21 21 21 20 20 19 18 18 17 17 17 16 16 16 15 15 14 14 13 13 13 12
23 22 22 22 22 22 22 22 22 22 21 21 21 21 20 19 19 18 18 18 19 19 19 19 19 18 18 18 17 17 17 16 16 16 15 15 15 14 14 13 13 13 13 12
23 21 20 20 21 21 21 21 21 20 20 20 20 19 19 18 17 17 17 17 17 17 17 17 17 17 16 16 16 16 16 15 15 15 14 14 14 14 14 13 13 13 13 12
23 22 22 20 21 21 20 20 20 19 19 19 18 18 17 17 17 16 16 16 16 15 15 15 15 15 15 15 15 15 14 14 14 14 14 14 14 14 14 14 14 13 13 12
23 23 21 21 21 20 20 20 19 19 18 18 17 17 16 16 16 15 15 15 15 14 14 14 14 14 14 14 13 13 13 13 13 13 14 14 14 14 14 14 13 13 13 12
20 21 21 20 20 19 19 19 18 18 17 17 16 16 15 15 15 15 14 14 14 13 13 13 13 13 12 12 12 12 12 12 12 13 13 13 13 14 14 14 13 13 13 12
20 19 19 18 18 18 18 17 17 17 16 16 15 15 15 14 14 14 14 13 13 13 12 12 12 12 11 11 11 11 11 11 12 12 12 13 13 13 13 13 13 13 13 12
19 18 18 17 17 16 16 16 16 15 15 15 15 14 14 14 14 13 13 12 12 12 11 11 11 11 10 10 10 10 11 11 11 12 12 12 13 13 13 13 13 12 12 12
18 17 17 16 16 15 15 15 15 15 14 14 14 14 13 13 13 12 12 12 11 11 11 11 10 10 10 10 10 10 10 10 10 11 11 12 12 12 12 12 12 12 11 11
16 15 15 15 15 15 14 14 14 14 14 13 13 13 12 12 12 11 11 11 11 11 11 10 10 10 9 9 9 9 9 9 9 10 10 10 11 11 11 11 11 11 11 11
15 15 15 14 14 14 14 14 14 13 13 13 12 12 12 11 11 11 11 10 10 10 10 10 9 9 9 9 8 8 8 9 9 9 9 9 10 10 10 10 10 10 10 10
15 14 14 14 14 14 14 13 13 13 12 12 12 12 11 11 11 11 10 10 10 10 10 9 9 9 8 8 8 8 8 8 8 8 8 8 8 8 9 9 9 9 9 9
15 14 14 14 14 13 13 13 12 12 12 12 12 11 11 11 11 10 10 10 10 10 9 9 9 8 8 7 7 7 7 7 7 7 7 7 7 7 7 7 8 8 8 8
14 14 13 13 13 13 12 12 12 12 12 11 11 11 11 10 10 10 10 10 10 9 9 8 8 7 7 7 6 6 6 5 5 5 5 5 6 6 6 6 7 7 7 7
13 13 12 12 12 12 12 12 12 12 11 11 11 11 11 10 10 10 10 10 9 9 8 8 7 7 6 6 5 5 4 4 4 4 4 4 4 5 5 5 5 6 6 6
12 12 12 12 12 11 11 12 12 11 11 11 11 11 11 11 10 10 10 9 9 8 7 7 6 6 5 4 4 3 3 3 3 3 3 3 3 4 4 4 4 5 5 5
12 12 11 11 11 12 12 12 11 11 11 11 11 11 10 10 10 9 9 8 7 7 6 5 5 4 3 3 2 2 2 2 2 2 2 2 2 3 3 3 3 4 4 4
12 11 12 11 11 11 11 11 11 11 11 11 10 10 10 9 9 8 8 7 6 6 5 4 3 3 2 2 1 1 1 1 1 1 1 1 2 2 2 2 2 3 3 3
12 12 11 11 11 11 11 11 10 10 10 10 9 9 9 8 8 7 6 6 5 4 3 3 2 1 1 1 0 0 0 0 0 1 1 1 1 1 2 2 2 2 2 3

GEFSNGP_850_meantemp_060.txt.gz
Temperature
22 23 23 23 24 24 22 21 20 21 21 21 21 21 23 25 25 25 25 25 24 24 24 23 23 22 22 22 21 21 20 20 20 19 19 18 18 17 17 17 16 16 15 15
22 23 23 23 24 24 23 22 21 21 21 21 21 23 23 24 25 24 25 25 25 24 24 23 23 23 22 22 22 21 21 21 20 19 19 19 18 18 17 17 16 16 16 15
20 22 22 21 22 22 21 20 20 19 19 19 20 21 22 24 24 24 24 25 24 24 24 24 23 23 23 22 22 21 21 21 20 20 19 19 18 18 17 17 17 16 16 15
19 20 21 21 21 21 20 18 18 18 19 19 19 20 21 23 23 24 24 24 24 24 24 24 23 23 23 23 22 21 21 21 20 20 19 19 18 18 18 17 17 16 16 16
17 19 20 21 21 20 19 17 17 17 18 19 20 20 19 20 22 23 23 23 23 24 23 23 23 23 23 22 22 21 21 21 20 20 19 19 18 18 18 17 17 16 16 16
17 19 19 20 20 20 19 17 17 17 17 18 19 17 16 18 20 21 22 22 22 22 22 22 22 22 22 21 21 21 21 21 20 20 19 19 18 18 17 17 16 16 16 16
17 17 18 19 19 19 19 17 17 17 18 18 17 16 17 18 19 19 20 20 20 20 20 20 20 21 20 20 20 20 20 19 19 19 18 18 18 17 17 16 16 16 15 15
16 16 17 18 18 18 17 17 18 18 19 18 17 17 17 17 18 18 18 18 19 19 18 18 19 19 19 18 18 18 18 18 18 17 17 17 17 16 16 16 15 15 15 15
15 16 16 17 17 18 19 18 18 19 19 18 17 17 17 17 17 17 17 17 17 17 17 17 17 17 17 16 17 17 17 16 16 16 16 16 15 15 15 15 15 14 14 14
15 15 16 17 18 18 19 19 19 18 18 18 17 16 16 16 16 16 16 16 16 16 16 16 15 15 15 15 15 15 15 15 14 14 14 14 14 14 14 14 14 14 14 13
14 15 16 16 18 18 18 18 18 18 18 17 17 16 16 16 16 15 15 15 15 15 14 14 14 14 13 13 13 13 13 13 13 13 13 13 13 13 12 12 12 12 13 13
15 15 14 16 18 18 18 18 18 17 16 16 16 16 16 15 15 15 14 14 14 13 13 13 13 12 12 12 12 12 12 12 11 11 11 11 11 12 12 12 12 12 12 12
18 18 18 17 18 18 17 17 17 17 16 16 15 15 15 15 14 14 14 13 13 12 12 12 12 11 11 11 11 11 11 10 10 10 10 10 10 10 10 11 11 11 12 12
18 18 16 17 17 17 16 16 16 16 15 15 15 14 14 14 13 13 13 12 12 12 11 11 11 11 10 10 10 10 10 10 10 9 9 9 9 9 9 9 10 10 11 11
17 17 16 16 16 16 16 16 15 15 15 14 14 14 13 13 13 12 12 12 11 11 11 10 10 10 10 10 10 10 9 9 9 9 9 9 9 9 9 9 9 9 10 10
16 16 16 16 15 15 15 15 14 14 14 14 13 13 13 12 12 12 11 11 11 10 10 10 10 10 10 10 9 9 9 9 8 8 8 8 8 8 8 8 8 8 9 9
15 15 15 15 15 14 14 14 14 14 13 13 13 12 12 12 11 11 11 11 10 10 10 10 10 10 9 9 9 9 8 8 8 8 7 7 7 7 7 7 7 7 7 8
15 15 15 15 14 14 14 14 13 13 13 12 12 12 12 11 11 11 11 10 10 10 10 10 9 9 9 9 8 8 8 7 7 7 7 6 6 6 6 6 6 6 7 7
14 14 14 14 14 14 13 13 13 12 12 12 12 12 11 11 11 11 10 10 10 10 10 9 9 9 9 8 8 7 7 7 6 6 6 5 5 5 5 5 5 6 6 6
14 14 14 13 13 13 13 12 12 12 12 12 11 11 11 11 11 10 10 10 10 9 9 9 9 8 8 8 7 7 6 6 5 5 4 4 4 4 4 4 4 5 5 6
13 13 13 13 12 12 12 12 12 12 11 11 11 11 11 11 10 10 10 10 9 9 9 8 8 8 7 7 6 5 5 4 4 3 3 3 3 3 3 3 4 4 4 5
12 12 12 12 12 12 12 11 11 11 11 11 11 11 11 10 10 10 10 9 9 8 8 8 7 7 6 5 5 4 3 3 2 2 2 2 2 2 2 2 3 3 3 4
12 12 12 12 11 11 11 11 11 11 11 11 11 11 10 10 10 9 9 8 8 7 7 7 6 5 5 4 3 3 2 2 1 1 1 1 1 1 1 2 2 2 3 3
12 11 11 11 11 11 11 11 11 11 10 10 10 10 10 9 9 8 8 8 7 7 6 5 5 4 3 3 2 2 1 1 1 0 0 1 1 1 1 1 2 2 2 2
11 11 11 11 11 11 11 10 10 10 10 10 9 9 9 9 8 8 7 7 6 5 5 4 3 3 2 1 1 1 0 -0 -0 -0 -0 -0 0 0 1 1 1 1 2 2
11 11 10 10 10 10 10 10 9 9 9 9 9 8 8 8 7 7 6 6 5 4 4 3 2 2 1 1 0 -0 -0 -1 -1 -1 -1 -0 -0 -0 0 1 1 1 1 2
10 10 10 9 9 9 9 9 8 8 8 8 8 7 7 7 6 6 5 4 4 3 2 2 1 1 0 -0 -0 -1 -1 -1 -1 -1 -1 -1 -0 -0 0 0 1 1 1 2

GEFSNGP_850_meantemp_066.txt.gz
Temperature
20 20 20 21 21 19 18 17 18 18 18 18 18 17 18 19 21 21 22 23 23 23 23 23 23 23 22 22 21 21 20 20 20 20 19 19 19 19 18 18 18 17 17 17
21 21 21 21 20 20 20 19 18 18 18 18 17 17 17 18 19 20 21 22 23 23 23 23 23 23 23 22 22 21 21 20 20 20 19 19 19 19 18 18 18 17 17 17
19 20 21 20 20 19 19 18 18 18 18 16 15 15 15 16 18 19 20 21 22 22 22 23 23 23 22 22 21 21 21 20 20 20 19 19 19 19 18 18 18 18 17 17
17 19 20 19 18 19 18 17 16 16 16 15 15 14 14 16 17 18 19 20 21 21 22 22 22 22 22 21 21 20 20 20 19 19 19 19 19 18 18 18 18 17 17 17
16 18 18 19 18 17 17 17 16 15 15 15 16 16 15 15 16 17 18 19 20 20 20 21 21 21 20 20 19 19 19 19 18 18 18 18 18 18 18 17 17 17 17 16
15 18 18 19 18 18 18 17 17 15 15 16 16 15 14 14 16 17 17 18 18 19 19 19 19 19 19 18 18 17 17 17 17 17 17 17 17 17 16 16 16 16 16 16
15 16 17 18 17 18 17 17 17 16 16 16 14 14 14 15 15 16 16 17 17 18 17 17 17 17 17 16 16 15 15 15 16 16 16 16 15 15 15 15 15 15 15 15
14 16 17 17 17 16 16 17 17 16 16 16 15 15 15 15 15 15 15 16 16 16 16 15 15 16 16 15 14 14 14 14 14 14 14 14 14 14 13 13 13 13 13 13
14 15 16 16 17 17 17 17 17 17 16 16 15 14 14 14 15 15 15 15 15 15 15 14 14 14 14 13 13 13 13 13 12 12 12 12 12 12 12 12 12 12 12 12
14 14 15 16 17 17 17 17 17 17 16 16 15 15 14 14 14 14 14 14 14 14 13 13 13 12 12 12 11 11 11 11 11 11 11 11 11 11 11 11 10 10 11 11
14 14 15 16 16 17 17 17 17 16 16 16 15 15 14 14 14 14 13 13 13 13 12 12 12 11 11 11 11 11 10 10 10 10 10 10 10 10 9 9 9 9 9 9
15 15 14 15 16 16 17 17 16 16 15 15 15 14 14 14 13 13 13 12 12 12 11 11 11 10 10 10 10 10 10 10 9 9 9 9 9 9 9 9 9 9 9 9
16 16 16 15 16 16 16 16 15 15 15 14 14 14 14 13 13 12 12 12 11 11 11 10 10 10 10 10 9 9 9 9 9 9 9 8 8 8 8 8 9 9 9 8
15 15 14 14 14 15 15 14 14 14 14 14 14 13 13 13 12 12 12 11 11 11 10 10 10 10 9 9 9 9 9 9 8 8 8 8 8 7 7 7 7 7 8 8
14 15 14 14 14 14 14 14 14 14 13 13 13 13 13 12 12 11 11 11 10 10 10 10 10 9 9 9 9 9 9 8 8 8 8 7 7 7 6 6 6 6 6 6
13 14 13 13 13 13 13 14 14 13 13 13 13 12 12 12 11 11 11 10 10 10 10 10 9 9 9 9 9 8 8 8 7 7 7 7 6 6 6 5 5 5 5 5
13 13 13 13 13 13 13 13 13 13 13 12 12 12 11 11 11 11 10 10 10 10 10 10 9 9 9 9 8 8 8 7 7 7 6 6 5 5 4 4 4 4 4 4
13 13 13 13 13 12 12 12 12 12 12 12 12 11 11 11 11 11 10 10 10 10 10 9 9 9 8 8 8 7 7 7 6 6 5 5 4 3 3 3 3 3 3 3
13 13 12 12 12 12 12 12 12 12 12 11 11 11 11 11 10 10 10 10 10 10 9 9 9 8 8 7 7 7 6 6 5 4 4 3 3 2 2 2 2 2 2 2
12 12 12 12 12 12 12 11 11 11 11 11 11 11 11 10 10 10 10 10 10 9 9 8 8 8 7 6 6 5 5 4 4 3 2 2 2 1 1 1 1 1 2 2
11 11 11 11 11 11 11 11 11 11 11 11 11 10 10 10 10 10 10 9 9 9 8 8 7 6 6 5 5 4 4 3 2 2 1 1 1 1 1 1 1 1 1 1
11 11 11 11 11 11 11 11 11 11 11 10 10 10 10 10 10 9 9 9 8 8 7 6 6 5 5 4 4 3 2 2 1 0 0 0 -0 -0 -0 0 0 0 0 1
10 10 11 11 11 11 11 11 10 10 10 10 10 9 9 9 9 8 8 8 7 7 6 5 5 4 3 3 2 2 1 1 0 -0 -1 -1 -1 -1 -1 -0 -0 -0 0 0
10 10 10 10 10 10 10 10 10 10 9 9 9 9 8 8 8 8 7 7 6 5 5 4 3 3 2 2 1 1 0 -0 -1 -1 -1 -1 -1 -1 -1 -1 -0 -0 -0 0
9 9 9 10 9 9 9 9 9 9 9 8 8 8 8 7 7 6 6 5 5 4 4 3 2 2 1 1 0 -0 -0 -1 -1 -1 -1 -1 -1 -1 -1 -1 -1 -0 -0 0
9 9 9 9 8 8 8 8 8 8 7 7 7 7 7 6 6 5 5 4 4 3 2 2 1 1 0 -0 -0 -1 -1 -1 -1 -1 -1 -1 -1 -1 -1 -1 -1 -0 -0 -0
8 8 8 8 7 7 7 7 7 7 6 6 6 6 6 5 5 4 4 3 3 2 1 1 0 0 -0 -1 -1 -1 -1 -1 -1 -1 -1 -1 -1 -1 -1 -1 -1 -1 -0 -0

GEFSNGP_850_meantemp_072.txt.gz
Temperature
28 28 28 28 28 27 27 27 27 27 27 27 26 25 23 23 23 23 23 22 22 22 21 20 20 20 20 20 19 19 19 19 19 19 19 19 19 19 18 18 18 18 17 17
27 28 28 27 28 27 27 27 27 27 27 25 23 22 22 22 22 22 22 22 21 21 20 20 19 19 19 19 19 19 19 19 19 19 19 19 18 18 18 18 18 17 17 17
27 27 27 26 27 27 27 27 27 27 26 24 23 21 20 20 21 20 20 20 20 19 19 19 19 19 18 18 18 18 18 18 17 17 17 18 18 17 18 18 18 18 17 17
26 26 24 27 27 27 27 27 26 25 24 23 21 18 18 18 18 18 18 18 18 18 18 18 18 18 18 18 17 17 17 17 16 16 16 17 17 17 17 17 17 17 17 17
26 25 26 26 26 26 26 26 25 24 23 21 19 19 18 16 16 16 16 16 16 16 16 17 17 17 17 17 16 16 16 16 16 16 16 16 16 16 16 16 16 16 16 16
25 24 24 26 25 24 25 25 24 23 22 21 21 22 19 16 15 15 14 15 15 15 15 15 15 15 16 16 16 16 15 15 15 15 15 15 15 15 15 15 15 15 14 14
24 24 25 25 24 24 24 24 23 22 22 21 22 20 16 15 14 14 14 14 15 15 15 14 15 15 15 15 15 14 14 14 14 14 14 14 14 14 14 14 13 13 13 13
24 24 24 24 24 24 23 21 21 21 21 20 18 16 15 14 14 13 13 13 14 14 14 13 13 14 14 13 13 13 13 13 12 12 12 12 12 12 12 12 12 12 12 12
25 24 22 22 23 21 20 21 20 20 19 18 16 15 15 14 14 13 13 13 13 13 13 13 12 12 12 12 11 11 11 11 11 11 11 11 11 11 11 11 11 11 11 11
23 24 22 21 20 20 19 20 19 19 18 17 16 15 14 14 13 13 13 13 13 12 12 12 11 11 11 11 11 10 10 10 10 10 10 10 10 10 10 10 10 10 10 10
23 23 22 20 19 19 18 18 18 17 17 16 15 15 14 13 13 13 12 12 12 12 11 11 11 10 10 10 10 10 10 10 10 10 10 9 9 9 9 9 9 8 8 8
22 20 21 19 18 18 17 17 17 16 16 15 15 14 14 13 13 12 12 12 12 11 11 11 10 10 10 9 9 9 10 10 10 10 10 9 9 9 9 8 8 8 8 7
18 17 17 17 17 17 16 16 15 15 15 14 14 14 13 13 12 12 12 11 11 11 11 10 10 10 9 9 9 9 9 9 9 9 9 9 9 9 9 9 8 8 7 7
15 16 16 16 16 15 15 15 14 14 13 13 13 13 12 12 12 12 11 11 11 11 10 10 10 10 9 9 9 8 8 9 8 9 9 9 8 8 8 8 8 8 7 6
15 15 15 14 14 14 14 14 13 13 12 12 12 12 12 12 11 11 11 11 10 10 10 10 10 9 9 9 8 8 8 8 8 8 8 8 8 8 7 7 7 6 6 6
14 14 14 14 14 13 13 13 13 12 12 12 12 11 11 11 11 11 11 10 10 10 10 9 9 9 9 8 8 8 8 8 7 7 7 7 7 7 6 6 6 5 5 5
14 14 14 13 13 13 13 12 12 12 11 11 11 11 11 11 11 10 10 10 10 9 9 9 9 8 8 8 7 8 8 7 7 7 7 6 6 5 5 5 4 4 4 3
13 13 13 13 12 12 12 12 11 11 11 11 11 10 10 10 10 10 10 10 10 9 9 8 8 8 7 7 7 6 6 6 6 6 5 5 4 4 4 3 3 3 3 2
12 12 12 12 12 12 12 11 11 11 11 11 10 10 10 10 10 10 10 9 9 9 8 8 8 7 7 6 6 5 5 5 5 4 4 3 3 3 2 2 2 1 1 1
11 11 11 11 11 11 11 11 11 11 11 10 10 10 10 10 10 10 9 9 9 8 8 7 7 6 5 5 5 5 4 4 3 3 2 2 2 1 1 1 1 1 1 1
11 11 11 11 11 11 11 11 11 11 10 10 10 10 10 10 9 9 9 9 8 7 7 6 6 5 5 4 4 4 3 2 2 1 1 1 1 1 0 0 0 0 0 0
11 11 11 11 11 11 10 10 10 10 10 10 10 9 9 9 9 8 8 8 7 7 6 5 5 4 4 3 3 3 2 1 1 1 0 0 0 -0 -0 -0 -0 -0 -0 -0
10 10 10 10 10 10 10 10 10 10 9 9 9 9 9 8 8 8 7 6 6 6 5 4 4 3 3 2 2 1 1 0 0 -0 -0 -0 -0 -1 -1 -1 -1 -1 -1 -1
9 9 9 9 10 10 10 9 9 9 9 8 8 8 8 8 7 7 6 6 5 4 4 3 3 2 2 1 1 1 0 -0 -0 -0 -1 -1 -1 -1 -1 -1 -1 -1 -1 -1
9 9 9 9 9 9 9 9 9 8 8 8 8 7 7 6 6 5 5 4 4 3 2 2 2 1 1 1 0 -0 -0 -1 -1 -1 -1 -1 -1 -1 -1 -1 -1 -1 -1 -1
8 9 8 8 8 8 8 8 8 8 7 7 7 6 6 5 5 4 4 3 3 2 2 1 1 1 0 0 -0 -1 -1 -1 -1 -1 -1 -1 -1 -1 -1 -1 -1 -1 -1 -1
8 8 8 8 8 7 7 7 7 7 6 6 6 5 5 4 4 3 3 2 2 2 1 1 1 0 0 -0 -0 -1 -1 -1 -1 -1 -1 -1 -1 -1 -1 -1 -1 -1 -1 -1

GEFSNGP_850_meantemp_078.txt.gz
Temperature
29 28 27 26 26 28 28 29 28 28 27 26 25 25 25 25 25 25 25 24 24 23 23 22 22 22 21 21 20 20 20 19 19 19 18 18 18 18 18 18 18 18 17 17
29 29 29 28 28 29 29 29 29 29 27 26 25 25 25 25 24 24 24 23 23 23 22 22 22 21 21 21 21 20 20 19 19 18 18 18 18 17 17 17 17 17 17 17
27 29 29 28 29 29 29 30 29 28 27 26 24 24 24 23 23 23 22 22 21 21 21 21 21 21 20 20 20 20 19 19 19 18 18 17 17 17 17 17 17 17 16 16
26 27 25 28 30 30 29 29 29 27 26 25 23 22 21 21 21 21 20 20 20 19 19 19 19 19 19 19 19 19 19 18 18 18 17 17 17 17 16 16 16 16 16 16
25 26 26 27 27 27 27 27 27 26 25 23 21 21 20 20 19 19 18 18 18 18 17 18 18 18 18 18 17 17 17 16 17 17 17 16 16 16 16 16 15 15 15 15
24 25 24 25 25 25 25 24 26 25 24 23 22 21 20 18 18 17 17 16 16 16 16 16 16 16 16 16 16 16 15 15 15 15 15 15 15 15 15 15 15 14 14 14
25 25 24 24 23 24 23 23 25 25 24 23 23 21 18 17 17 16 16 15 15 15 15 15 15 15 15 15 15 14 14 14 14 14 14 14 14 14 14 14 14 14 13 13
24 24 22 22 22 22 22 23 24 24 22 21 19 18 17 17 16 15 15 15 15 15 14 14 14 14 14 14 13 13 13 13 13 13 13 13 13 12 12 13 13 13 13 13
21 21 20 20 20 20 21 22 23 22 21 19 18 17 16 16 15 15 15 14 14 14 13 13 13 13 13 12 12 12 12 12 12 12 12 12 12 12 12 12 12 12 12 12
19 19 19 20 20 20 21 22 22 21 20 19 18 17 16 15 15 14 14 14 13 13 13 12 12 12 11 11 11 11 11 11 11 11 11 12 12 11 11 11 11 11 10 10
19 19 19 19 20 20 21 21 21 20 19 18 17 16 15 15 14 14 14 13 13 12 12 12 11 11 11 11 11 11 11 11 11 11 11 11 11 11 11 11 10 10 10 9
19 19 19 19 20 20 20 20 19 19 18 17 16 16 15 14 14 14 13 13 13 12 12 12 11 11 11 11 10 10 10 10 10 11 11 11 11 11 11 11 10 10 10 9
20 20 20 20 20 20 19 18 18 17 17 16 15 15 14 14 13 13 13 12 12 12 12 11 11 11 11 10 10 10 10 10 10 10 10 10 10 10 10 10 10 10 9 9
19 19 19 19 19 18 17 17 16 16 15 15 14 14 13 13 13 12 12 12 12 12 12 11 11 10 10 10 10 10 10 10 10 10 10 10 10 10 10 9 9 9 8 8
19 19 18 18 17 17 16 16 15 15 14 14 13 13 13 12 12 12 12 11 11 11 11 11 10 10 10 9 9 9 9 9 9 9 9 9 9 9 9 8 8 8 7 7
18 18 17 17 16 16 15 15 14 14 13 13 13 12 12 12 12 11 11 11 11 11 10 10 10 9 9 9 9 9 9 9 9 9 9 9 8 8 8 7 7 6 6 5
17 17 16 16 15 15 15 14 14 13 13 13 12 12 12 11 11 11 11 11 10 10 10 9 9 9 9 9 8 8 8 8 8 8 8 7 7 6 6 6 5 5 4 4
16 16 15 15 15 14 14 13 13 13 12 12 12 12 11 11 11 11 11 10 10 10 9 9 9 9 8 8 8 8 8 8 7 7 7 6 5 5 5 4 4 3 3 2
15 14 14 14 14 13 13 13 13 13 12 12 12 12 11 11 11 11 10 10 10 9 9 9 8 8 7 7 7 7 7 7 6 6 5 5 4 4 3 3 2 2 2 1
14 14 13 13 13 13 13 12 12 12 12 12 12 11 11 11 11 10 10 10 9 9 8 8 8 7 7 6 6 6 6 6 5 5 4 4 3 3 2 2 1 1 1 1
13 13 13 13 13 13 12 12 12 12 12 11 11 11 11 10 10 10 10 9 9 8 8 7 7 7 6 6 6 5 5 4 4 3 3 3 2 2 2 1 1 1 0 0
12 12 12 12 12 12 12 12 12 12 11 11 11 11 10 10 10 9 9 8 8 7 7 6 6 6 5 5 5 4 4 3 3 3 2 2 2 1 1 1 1 0 0 -0
12 12 12 12 12 12 12 12 11 11 11 10 10 10 10 9 9 9 8 7 7 7 6 6 5 5 4 4 4 3 3 2 2 2 2 1 1 1 1 1 0 0 0 -0
11 11 11 11 11 11 11 11 11 10 10 10 10 9 9 9 8 8 7 7 6 6 5 5 4 4 4 3 3 3 2 2 2 2 1 1 1 1 1 0 0 0 -0 -0
11 11 11 11 11 11 10 10 10 10 10 9 9 8 8 8 7 7 6 6 5 5 4 4 4 3 3 3 2 2 2 1 1 1 1 1 1 1 0 0 0 -0 -0 -1
10 11 10 10 10 10 10 10 9 9 9 9 8 8 7 7 6 6 5 5 5 4 4 4 3 3 3 3 2 2 2 2 1 1 1 1 0 0 0 -0 -0 -1 -1 -1
10 10 10 10 10 9 9 9 9 8 8 8 7 7 7 6 6 5 5 5 4 4 4 3 3 3 3 3 2 2 2 2 1 1 1 0 0 -0 -0 -1 -1 -1 -1 -1